星链-31202 (STARLINK-31202 )

导读

STARLINK-31202是美国SpaceX公司星链(Starlink)星座的成员卫星,于北京时间2024年2月25日发射入轨,属于星链星座组网扩展任务的一部分。星链是全球规模最大的低地球轨道卫星互联网星座,该卫星部署在近地轨道,旨在为全球提供高速宽带互联网服务,尤其覆盖偏远地区与网络基础设施薄弱区域。作为星链持续扩容的卫星之一,它助力提升星座网络容量与覆盖稳定性,推动SpaceX实现全球卫星互联网组网的战略目标。

基本信息
目录编号:
59042
目录名称:
STARLINK-31202
国际标识:
2024-038V
轨道中心:
EARTH
卫星名称:
星链-31202
卫星全名:
星链-31202 (STARLINK-31202 )
卫星状态:
在轨 (已飞行922 天)
发射日期:
2024-02-25 UTC
国别 :
美国 (US)
星等 :
--
轨道信息
数据来源 国际轨道数据
星历时间: 2026-09-03T23:15:03+0800
13小时前
查看轨道信息
半长轴: 6846.676km
偏心率: 0.0005121
轨道倾角: 43.000°
近地点辐角 281.302°
升交点赤经 95.972°
平近点角 78.726°
近地点: 465.032km
远地点: 472.046km
周期: 93.968分钟
每日圈数: 15.324389
详细信息
固有亮度:
5
最大亮度:
0.3
卫星平台:
Starlink v2.0 mini
覆盖范围:
全球
运营商:
太空探索技术公司
运营商所在国:
美国
制造商(研发单位):
太空探索技术公司
制造商所在国:
美国
使用方式:
暂无
卫星简介
星链(Starlink)计划是由太空探索技术公司(SpaceX)提出的一个巨型低轨卫星互联网星座项目,计划在2019年至2024年间在太空搭建由约1.2万颗卫星组成的“星链”网络,其中1584颗将部署在地球上空550千米处的近地轨道,并从2020年开始工作。该卫星仍在工作。
2D轨道图
3D轨道图
轨道高度分析图
轨道倾角分析图
轨道综合分析图
查看轨道综合分析图
交会数据列表
事件ID 空间交会对象 最接近时刻(TCA) 交会距离 交会风险概率(CRP) 交会风险指数(CRI) 操作
CDM_260828-151205-904206-774021
2026-08-28T
15:12:19+0000
0.909 km
远距离
3.652016E-5 中风险 0.66
CDM_260905-094105-904206-773421
2026-09-05T
09:41:30+0000
1.460 km
极远距离
7.013602E-6 低风险 0.52
CDM_260905-102805-904206-773421
2026-09-05T
10:28:30+0000
1.799 km
极远距离
3.659201E-6 低风险 0.46
CDM_260903-192705-343905-904221
2026-09-03T
19:27:03+0000
2.070 km
极远距离
1.742605E-6 低风险 0.4
CDM_260904-071004-605805-904221
2026-09-04T
07:10:18+0000
2.808 km
极远距离
1.021939E-6 低风险 0.35
CDM_260903-021905-904206-520521
2026-09-03T
02:19:14+0000
2.584 km
极远距离
9.165396E-7 极低风险 0.34
CDM_260904-045105-904206-286021
2026-09-04T
04:51:26+0000
2.896 km
极远距离
9.165196E-7 极低风险 0.34
CDM_260903-193305-904206-984121
2026-09-03T
19:33:17+0000
2.712 km
极远距离
7.844353E-7 极低风险 0.33